Weather in Goloskov

Ukraine / Khmelnitsky District     48°44′27″N   26°32′57″E
temp.,
°C
wind,
m/s
gust,
m/s
humid.,
%
clouds,
%
prec.,
mm/h
press.,
hPa
HPBL,
m
19 april, mon
mon1900:00+9nw1166100 0.0 101725
03:00+8wnw1168100 0.0 101711
06:00+7wnw0175100 0.0 101610
09:00+9sw1169100 0.0 1016212
12:00+9nne1175100 0.1 1016594
15:00+11se336697 0.3 1015938
18:00+12ese336095 0.1 10131071
21:00+10e3673100 0.9 1014245
20 april, tue
tue2000:00+8e2481100 0.1 101486
03:00+6ene238498 0.1 101379
06:00+7ne2381100 0.1 101292
09:00+9nne346894 0.1 1012418
12:00+12n334971 0.3 10111707
15:00+13nnw234497 0.5 10101804
18:00+13nnw444635 0.1 10091658
21:00+9ne477255 0.2 1012245
21 april, wed
wed2100:00+8ssw1176100 0.0 101287
03:00+8w1279100 0.1 101298
06:00+7wnw2378100 0.1 1013116
09:00+8wsw2378100 0.1 1014277
12:00+12wsw335466 0.6 10131461
15:00+14wsw4451100 1.9 10131577
18:00+14w3454100 2.1 10131205
21:00+10w337499 2.7 101450
22 april, thu
thu2200:00+9sw227522 0.3 101513
03:00+7wsw227991 0.3 101514
06:00+7sw228069 0.0 101619
09:00+11sw356932 0.0 1016291
12:00+15sw4652100 0.0 10161410
15:00+16sw575165 0.4 10151709
18:00+15wsw245888 0.1 101489
21:00+10sse378213 1.7 1015145
23 april, fri
fri2300:00+9sw367699 0.2 1015128
03:00+8ssw227798 0.2 101415
06:00+6nw479662 0.0 1015226
09:00+5nnw7994100 1.5 1017636
12:00+7nw3576100 0.4 1019912
15:00+11wnw5751100 0.4 10181711
18:00+11nw67462 0.0 10181728
21:00+7wnw5106543 0.0 1020317